Location: Nitra
(48.3167°N, 18.0833°E)
Time: 01:26:40
(UTC+02:00)

Daily predictions for brighter satellites

Satellite Brightness Start Highest point End
(mag) Time Altitude Azimuth Time Altitude Azimuth Time Altitude Azimuth
Cosmos 1943 Rocket 4.3 00:00:08 10° WNW 00:03:02 14° W 00:03:36 14° WSW
Cosmos 2082 Rocket 4.5 00:04:56 12° E 00:04:56 12° E 00:05:47 10° ENE
H-2A R/B 3.4 00:07:36 35° NE 00:07:36 35° NE 00:10:56 10° N
USA 238 DEB 3.6 00:08:38 62° SW 00:09:56 84° NW 00:16:58 10° NE
USA 238 3.6 00:08:46 63° SW 00:10:02 85° NW 00:17:04 10° NE
Cosmos 1452 Rocket 3.8 00:10:49 63° NW 00:10:49 63° NW 00:15:52 10° NNE
Cosmos 1656 4.3 00:08:27 10° NNW 00:13:38 44° NE 00:13:54 43° ENE
SeaSat 1 2.8 00:11:29 10° NNE 00:15:32 60° NNE 00:15:32 60° NNE
CZ-4 R/B 4.3 00:14:02 10° NNE 00:18:01 60° N 00:18:01 60° N
Cosmos 1634 Rocket 4.0 00:12:54 10° NNW 00:19:11 71° W 00:19:22 70° WSW
Meteor 1-15 Rocket 4.4 00:19:35 66° WNW 00:19:35 66° WNW 00:25:24 10° N
Meteor 1-24 Rocket 3.8 00:25:29 10° N 00:30:35 72° NNE 00:30:35 72° NNE
SL-19 R/B 4.3 00:26:10 10° NNE 00:32:02 81° WNW 00:32:02 81° WNW
USA 215 4.2 00:30:26 10° ENE 00:36:36 46° NNW 00:42:46 10° W
Meteor 2-20 Rocket 4.4 00:36:50 81° WNW 00:36:50 81° WNW 00:42:56 10° N
Cosmos 2180 Rocket 4.4 00:32:24 10° N 00:38:50 85° E 00:38:55 84° ESE
ALOS 2 4.1 00:42:40 31° NW 00:42:40 31° NW 00:45:19 10° NNW
Meteor 2-11 Rocket 4.4 00:36:05 10° N 00:42:11 76° ENE 00:42:11 76° ENE
Mayak 0.2 00:38:31 10° N 00:41:20 36° NNW 00:41:20 36° NNW
NOSS 3-2 (C) 3.4 00:48:11 82° ENE 00:48:11 82° ENE 00:54:41 10° NE
COSMOS 2406 3.3 00:52:02 72° NNW 00:52:02 72° NNW 00:57:30 10° NNE
Cosmos 1980 Rocket 3.4 00:47:23 10° NNW 00:52:39 37° NE 00:54:03 32° E
ADEOS Rocket 4.1 00:46:51 10° N 00:54:14 50° WNW 00:56:28 39° WSW
Cosmos 1110 Rocket 4.4 00:56:24 60° NNE 00:56:24 60° NNE 01:00:40 10° NNE
Cosmos 1238 Rocket 4.3 00:57:21 10° N 01:00:39 40° NNE 01:00:39 40° NNE
Lacrosse 5 4.4 01:07:56 10° E 01:07:56 10° E 01:07:57 10° E
CZ-4C R/B 2.8 01:00:18 10° NW 01:07:23 88° SW 01:08:34 68° SE
Cosmos 2344 3.5 01:07:54 66° SSE 01:08:43 71° SE 01:17:11 10° NE
Meteor 1-22 Rocket 4.4 01:12:19 72° WNW 01:12:19 72° WNW 01:18:20 10° N
ATLAS 3B R/B 3.2 01:12:50 36° W 01:15:22 53° NW 01:22:01 10° NE
Cosmos 1092 Rocket 4.1 01:18:17 62° E 01:18:21 62° E 01:24:24 10° NNE
CZ-4B R/B 4.1 01:16:07 10° N 01:19:55 47° NNW 01:19:55 47° NNW
CENTAUR R/B 2.5 01:21:02 75° ESE 01:21:02 75° ESE 01:27:58 10° NE
Cosmos 1833 Rocket 3.1 01:21:56 53° ENE 01:21:56 53° ENE 01:26:41 10° NE
CZ-4B R/B 4.1 01:27:24 19° NE 01:27:24 19° NE 01:29:10 10° NNE
Cosmos 1302 Rocket 4.3 01:27:49 65° NNE 01:27:49 65° NNE 01:32:17 10° NNE
NOSS 3-2 (A) 4.3 01:30:52 35° W 01:33:00 47° NW 01:39:37 10° NE
Cosmos 2369 4.3 01:27:36 10° NW 01:32:01 47° WNW 01:32:01 47° WNW
Cosmos 1626 4.2 01:31:04 10° N 01:33:04 26° NNE 01:33:04 26° NNE
Nadezhda 4 Rocket 3.9 01:34:37 72° W 01:34:41 73° W 01:40:51 10° N
Cosmos 2278 4.1 01:29:10 10° NNW 01:33:45 52° WNW 01:33:45 52° WNW
ASTEX 1 4.0 01:39:08 52° NW 01:39:08 52° NW 01:43:00 10° N
Cosmos 1697 Rocket 3.0 01:35:18 10° NNW 01:39:54 56° WNW 01:39:54 56° WNW
Meteor 1-21 Rocket 4.2 01:35:33 10° NNW 01:41:11 80° WNW 01:41:11 80° WNW
H-2A R/B 4.1 01:44:43 20° WNW 01:44:43 20° WNW 01:46:41 10° NW
Cosmos 2026 Rocket 4.1 01:44:54 62° ESE 01:45:27 65° E 01:51:42 10° NNE
Cosmos 2082 Rocket 2.2 01:46:47 75° E 01:46:47 75° E 01:52:12 10° NNE
Cosmos 1553 Rocket 4.5 01:42:46 10° N 01:48:59 54° ENE 01:50:28 45° ESE
Cosmos 2360 4.2 01:54:00 10° NNW 01:59:24 75° WNW 01:59:24 75° WNW
MOS 1 Rocket 4.5 01:56:58 10° N 02:01:02 35° WNW 02:01:02 35° WNW
S3M 4.4 01:56:05 10° N 02:02:08 57° ENE 02:03:43 45° SE
Cosmos 968 Rocket 3.5 02:02:08 10° NNW 02:06:55 77° N 02:06:55 77° N
Cosmos 1503 Rocket 4.5 02:02:53 10° NNW 02:07:12 51° WNW 02:07:12 51° WNW
Cosmos 1992 Rocket 4.0 02:09:11 71° E 02:09:11 71° E 02:14:12 10° NNE
Cosmos 1953 3.8 02:11:43 33° NNW 02:11:43 33° NNW 02:14:21 10° N
SL-16 R/B 2.9 02:09:07 10° NNW 02:14:40 51° NE 02:18:02 23° ESE
Cosmos 1340 4.3 02:17:41 30° ENE 02:17:41 30° ENE 02:20:20 10° NNE
Meteor 1-16 Rocket 4.3 02:18:07 67° SSE 02:18:50 77° E 02:24:48 10° NNE
CZ-2D R/B 3.0 02:13:49 10° NNE 02:18:53 39° E 02:19:53 36° ESE
USA 215 4.3 02:12:48 10° ENE 02:18:54 44° N 02:25:01 10° WNW
Cosmos 1470 4.4 02:21:48 28° NW 02:21:48 28° NW 02:24:14 10° N
SL-16 R/B 2.6 02:23:46 45° SSE 02:25:51 77° ENE 02:32:08 10° NNW
Cosmos 1766 Rocket 4.2 02:23:37 10° N 02:27:53 50° ENE 02:28:06 49° E
COSMOS 2487 4.0 02:30:53 35° NE 02:30:53 35° NE 02:33:04 10° NNE
Cosmos 1655 Rocket 3.9 02:29:42 61° S 02:30:53 87° E 02:37:11 10° N
Cosmos 2360 Rocket 3.8 02:28:12 10° NNW 02:33:21 34° NE 02:38:28 10° ESE
Resurs 1-4 Rocket 2.5 02:29:15 10° NNE 02:34:23 52° E 02:35:21 46° SE
BREEZE-M R/B 3.2 02:35:37 44° E 02:35:37 44° E 02:38:37 10° E
CBERS-1 4.2 02:30:41 10° NNE 02:35:45 60° ESE 02:36:26 54° SE
SL-8 R/B 3.9 02:37:08 60° ESE 02:37:08 60° ESE 02:41:05 10° ESE
Cosmos 1980 Rocket 2.8 02:31:23 10° NW 02:35:46 40° W 02:35:46 40° W
Cosmos 1417 Rocket 4.5 02:33:00 10° NNW 02:39:13 65° W 02:40:10 57° SW
Aureole 2 Rocket 3.4 02:38:22 10° NNW 02:41:25 51° N 02:41:25 51° N
UNK 3.6 02:43:50 84° WNW 02:43:50 84° WNW 02:48:24 10° NNW
Cosmos 2322 Rocket 2.3 02:38:45 10° NNW 02:44:27 76° ENE 02:47:33 28° SE
Cosmos 1908 3.8 02:46:56 53° E 02:46:56 53° E 02:50:33 10° NNE
Lacrosse 5 1.8 02:47:07 70° SSE 02:47:18 71° SE 02:52:22 10° ENE
Cosmos 2266 Rocket 4.0 02:51:08 43° SSE 02:53:15 72° E 02:59:18 10° NNE
CZ-4C R/B 4.1 02:49:44 10° WNW 02:53:42 23° W 02:53:42 23° W
Cosmos 1818 3.6 02:56:42 55° WSW 02:57:46 70° NW 03:03:16 10° NE
CZ-4B R/B 3.7 03:00:49 18° NW 03:00:49 18° NW 03:02:00 10° NNW
Meteor 1-11 4.2 02:53:58 10° NNW 02:59:24 56° W 02:59:58 53° WSW
NPP 3.6 02:54:49 10° NNE 03:00:14 79° WNW 03:01:22 56° SW
IRS-1C 4.2 02:56:50 10° NNE 03:02:12 74° ESE 03:03:44 47° S
Cosmos 1346 Rocket 4.0 03:02:57 33° NW 03:02:57 33° NW 03:06:05 10° N
Cosmos 332 Rocket 3.7 03:02:34 63° S 03:03:19 79° ESE 03:08:12 10° NNE
H-2A R/B 3.0 02:59:35 10° NNE 03:04:00 58° ESE 03:04:56 47° SSE
Cosmos 1833 Rocket 4.0 03:03:37 24° W 03:05:27 29° NW 03:10:21 10° NNE
Cosmos 1408 Rocket 3.4 03:01:58 10° N 03:06:20 85° W 03:06:40 76° SSW
Okean 3 Rocket 4.3 03:02:54 10° NNW 03:06:27 39° WNW 03:06:27 39° WNW
Cosmos 2315 Rocket 4.0 03:01:26 10° N 03:07:39 77° E 03:11:34 24° SSE
BREEZE-M DEB (TANK) 2.5 03:08:29 52° ENE 03:08:29 52° ENE 03:12:14 10° E
Cosmos 1743 Rocket 4.1 03:06:50 10° N 03:11:07 55° ENE 03:13:03 30° SE
CENTAUR R/B 3.8 03:08:11 19° W 03:12:15 37° NNW 03:19:04 10° NE
Cosmos 1500 Rocket 4.4 03:09:02 10° N 03:13:22 49° ENE 03:16:06 21° SE
BREEZE-M DEB (TANK) 2.7 03:13:27 77° S 03:13:31 78° SSE 03:16:07 10° ENE
SL-08 R/B 3.5 03:14:11 52° WSW 03:14:27 52° W 03:19:16 10° NNW
Cosmos 883 Rocket 4.4 03:11:02 10° NNW 03:17:11 73° W 03:19:49 36° S
IRS-1D 3.5 03:12:38 10° NNE 03:17:50 89° WNW 03:19:32 45° SSW
Cosmos 2058 2.8 03:13:52 10° NNW 03:18:05 69° W 03:18:16 67° WSW
Cosmos 2219 Rocket 4.3 03:16:35 10° NNW 03:21:24 27° NE 03:26:13 10° ESE
UNKNOWN OBJECT B 4.0 03:18:15 10° NNE 03:21:41 34° E 03:23:00 26° SE
Spot 4 Rocket 4.1 03:16:54 10° NNE 03:22:06 72° ESE 03:24:15 35° S
Timation 2 Rocket 4.3 03:19:09 34° S 03:22:16 72° ESE 03:29:07 10° NNE
deb Kosmos-1763 4.1 03:22:39 68° WNW 03:22:42 68° WNW 03:26:30 10° NNE
ADEOS II 3.3 03:20:41 10° NNE 03:25:35 38° E 03:29:33 15° SSE
Cosmos-2242 3.2 03:26:49 49° W 03:27:13 50° WNW 03:31:25 10° N
Cosmos 2082 Rocket 3.8 03:28:37 18° W 03:31:14 24° NW 03:35:48 10° N
Cosmos 1842 Rocket 3.8 03:30:07 35° S 03:31:56 68° E 03:36:24 10° NNE
COSMOS 2455 3.7 03:28:39 22° S 03:32:06 42° ESE 03:37:43 10° NE
IRS-P3 4.5 03:28:36 10° N 03:33:45 50° WNW 03:35:28 36° WSW
Cosmos 2322 4.1 03:30:27 10° NNW 03:36:07 64° ENE 03:41:43 10° SE
MOZ.5/SAFIR/RUBIN 5/SL-8 4.3 03:38:58 37° WSW 03:39:20 37° W 03:43:47 10° NNW
Cosmos 1300 2.7 03:40:42 41° S 03:41:56 76° E 03:45:46 10° NNE
In-Cosmos 22 Rocket 4.4 03:37:04 10° N 03:42:39 71° ENE 03:48:02 10° SSE
CZ-2D R/B 3.7 03:38:29 10° NNE 03:42:43 67° ESE 03:44:52 29° S
Cosmos 2237 4.4 03:37:22 10° NNW 03:43:07 76° ENE 03:48:48 10° SSE
ARIANE 5 R/B 2.5 03:38:35 10° NNE 03:43:51 75° WNW 03:46:18 32° SSW
Cosmos 371 Rocket 3.8 03:43:56 35° WSW 03:45:30 47° WNW 03:50:15 10° NNE
Cosmos 1726 2.8 03:47:12 37° W 03:47:24 37° WNW 03:50:52 10° N
Cosmos 2084 3.0 03:44:55 10° NW 03:48:51 84° SW 03:52:43 10° SE
PSLV R/B 4.2 03:48:31 42° SW 03:49:11 46° W 03:53:10 10° NNW
Nadezhda 2 Rocket 4.4 03:47:03 25° SSW 03:50:49 79° W 03:56:59 10° N
Cosmos 1340 4.3 03:52:29 21° WNW 03:52:38 21° WNW 03:55:33 10° NNW
Cosmos 1892 3.8 03:49:08 10° N 03:52:51 44° ENE 03:56:31 10° SSE
Cosmos 1244 Rocket 4.4 03:51:43 20° S 03:56:17 87° W 04:02:32 10° N
SJ 16-02 4.5 03:53:36 10° N 03:56:32 17° NE 03:59:27 10° E
Cosmos 2151 3.6 03:53:04 10° NNW 03:57:02 36° W 03:57:47 33° WSW
BREEZE-M DEB (TANK) 2.7 03:51:28 10° W 03:57:16 79° N 03:59:50 10° E
SL-16 R/B 3.0 03:53:40 10° NW 03:58:32 30° WSW 03:59:47 27° SW
CZ-2D R/B 3.0 03:54:01 10° N 03:58:54 35° WNW 04:01:12 25° WSW
USA 215 3.5 03:54:57 10° ESE 04:01:27 73° NNE 04:07:58 10° NW
Sich 1 4.3 03:58:36 10° N 04:02:40 41° ENE 04:06:44 10° SE
Cosmos 1833 4.2 04:04:46 21° SSW 04:08:34 83° ESE 04:14:15 10° NNE
SL-16 R/B 3.8 04:08:52 20° WSW 04:10:08 21° W 04:14:44 10° NW
Resurs 1-4 Rocket 3.3 04:09:37 10° N 04:13:56 26° WNW 04:16:25 19° W
Helios 1A Rocket 3.0 04:11:13 10° NNE 04:15:25 80° ESE 04:18:44 16° S
ADEOS 3.5 04:10:44 10° NNE 04:15:59 80° WNW 04:20:12 16° SSW
Tiangong 2 2.4 04:16:34 24° S 04:17:08 25° S 04:19:51 10° ESE
Cosmos 2360 Rocket 2.4 04:12:06 10° NW 04:17:33 48° WSW 04:22:58 10° S
Cosmos 405 Rocket 3.9 04:14:11 10° SSE 04:17:59 44° E 04:21:51 10° NNE
SL-8 R/B 4.1 04:15:10 16° W 04:18:36 41° SSW 04:23:04 10° SE
SAR-Lupe-2 3.5 04:16:35 12° S 04:19:50 62° WSW 04:23:25 10° NNW
Okean O Rocket 4.4 04:18:08 10° NE 04:20:38 15° E 04:23:08 10° SE
Cosmos 2221 2.4 04:17:58 19° SSW 04:20:54 69° W 04:25:12 10° N
Cosmos 304 Rocket 4.0 04:19:34 22° SW 04:22:26 53° WNW 04:27:11 10° NNE
Iridium 4 Rocket 4.4 04:17:39 10° NNW 04:23:02 39° W 04:27:09 17° SW
Cosmos 1633 Rocket 4.0 04:21:08 10° N 04:25:24 51° ENE 04:29:40 10° SSE
Cosmos 1898 Rocket 3.4 04:20:20 10° NNW 04:25:34 80° WSW 04:30:46 10° SSE
Cosmos 2322 Rocket 3.5 04:23:57 10° NW 04:27:52 19° W 04:29:14 18° WSW
Nadezhda 1 Rocket 3.9 04:22:06 10° N 04:28:16 83° W 04:34:30 10° S
Cosmos 1441 Rocket 3.2 04:25:03 12° S 04:28:27 81° E 04:32:19 10° NNE
COSMOS 2428 2.7 04:24:41 10° NNW 04:30:28 89° WSW 04:36:12 10° SSE
Lacrosse 5 2.8 04:26:19 13° W 04:30:35 41° NNW 04:35:24 10° NE
Meteor 1-28 Rocket 4.2 04:29:46 10° SSE 04:33:27 50° ENE 04:37:09 10° N
Atlas Centaur 2 4.3 04:33:02 10° SSW 04:35:28 12° S 04:37:44 10° SSE
Cosmos 2333 4.2 04:31:29 10° NNW 04:37:16 72° WSW 04:42:58 10° SSE
Cosmos 2333 Rocket 2.5 04:32:10 10° NNW 04:37:58 76° ENE 04:43:43 10° SSE
H-2A R/B 4.3 04:35:57 10° NNW 04:39:07 19° WNW 04:41:31 13° W
Cosmos 1408 3.3 04:36:26 10° N 04:40:08 57° ENE 04:43:48 10° SSE
Cosmos 2208 Rocket 4.1 04:34:52 10° SSW 04:40:20 89° ESE 04:45:50 10° NNE
Cosmos 1937 Rocket 3.5 04:38:24 10° NNW 04:43:45 78° WSW 04:49:03 10° SSE
BREEZE-M DEB (TANK) 3.7 04:41:18 15° WSW 04:44:46 70° SSE 04:57:35 10° E
Cosmos 1805 Rocket 3.7 04:40:47 10° NNW 04:44:59 51° W 04:49:11 10° S
Cosmos 2237 Rocket 3.2 04:41:42 10° NNW 04:47:15 51° NE 04:52:44 10° SE
Cosmos 1455 2.2 04:48:19 10° SSW 04:52:11 77° W 04:56:06 10° N
Cosmos 841 Rocket 4.4 04:48:54 10° S 04:53:51 49° ESE 04:58:49 10° NNE
Cosmos 1980 4.4 04:48:20 10° NNW 04:53:58 60° ENE 04:59:34 10° SE
UNKNOWN OBJECT B 4.2 04:53:09 10° NNW 04:55:59 21° WNW 04:58:25 12° WSW
Cosmos 990 Rocket 4.0 04:51:19 10° NNW 04:56:25 58° WSW 05:01:28 10° S
USA 229 DEB 3.8 04:50:27 10° SW 04:57:10 87° SE 05:04:10 10° NE
USA 229 3.8 04:50:33 10° SW 04:57:17 86° SE 05:04:17 10° NE
NOSS 3-1 (A) 4.5 04:52:34 10° S 04:57:53 42° ESE 05:03:53 10° NE
GENESIS II 4.4 04:58:50 11° SW 05:02:27 60° NW 05:06:22 10° NNE
Cosmos 1814 Rocket 4.2 04:57:55 10° SSW 05:03:06 74° ESE 05:08:16 10° NNE
ADEOS II 2.9 05:00:32 10° N 05:05:15 34° WNW 05:09:57 10° SW
Cosmos 2219 Rocket 2.2 05:00:12 10° NNW 05:05:50 64° WSW 05:11:26 10° SSE
Cosmos 292 Rocket 3.8 05:01:06 10° SSW 05:05:57 87° WNW 05:10:51 10° NNE
Cosmos 1151 Rocket 4.0 05:02:22 10° S 05:06:31 51° E 05:10:44 10° NNE
Cosmos 1763 Rocket 3.5 05:01:59 10° SSW 05:07:04 90° WSW 05:12:14 10° NNE
Cosmos 2181 Rocket 4.2 05:04:13 10° N 05:10:41 88° E 05:17:08 10° S
PSLV R/B 3.8 05:08:02 10° NNE 05:11:46 77° ESE 05:15:28 10° S
Shenzhou-11 Module 4.1 05:12:35 10° SW 05:13:46 12° SSW 05:14:58 10° S
Meteor 1-27 4.3 05:08:02 10° SSW 05:13:48 76° WNW 05:19:31 10° N
Intercosmos 25 Rocket 3.6 05:11:38 10° NNW 05:15:15 80° W 05:20:36 10° S
Cosmos 2298 Rocket 4.1 05:11:13 10° NNW 05:16:27 58° WSW 05:21:40 10° S
ARGOS Delta rocket 4.0 05:12:38 10° S 05:17:00 47° W 05:21:38 10° NNW
COSMOS 2455 3.4 05:12:17 10° WSW 05:18:02 45° NW 05:23:49 10° NNE
SL-24 R/B - RUBIN 2 4.0 05:15:48 10° SW 05:20:28 54° NW 05:24:50 10° NNE
